User: anonymous   Login
Location: Betra
(48.4113°N, 8.6634°E)
Time: 18:00:20
(UTC+00:00)
Language:

Cosmos 1703 - Orbit

View from above orbital plane
View from above orbital plane
View from above satellite
View from above satellite

Ground track
Ground track

The orbit data is extracted from the following two-line orbital elements,

1 16262U 85108A   24204.46246026  .00014515  00000-0  57677-3 0  9992
2 16262  82.4679 212.0376 0006818 343.3797  16.7216 15.25177198110578
Epoch (UTC): 22 July 2024 11:05:56
Eccentricity: 0.0006818
inclination: 82.4679°
perigee height: 485 km
apogee height: 495 km
right ascension of ascending node: 212.0376°
argument of perigee: 343.3797°
revolutions per day: 15.25177198
mean anomaly at epoch: 16.7216°
orbit number at epoch: 11057

The dashed part of the orbit path shows where the satellite is in the earth's shadow,  

DLR